Total_Precipitation_Accumulation
1.16 1.43 1.37 1.14 1.14 1.20 1.24 1.37 1.59 1.51 1.42 1.50 1.66 1.78 1.73 1.70 1.71 1.57 1.41 1.32 1.12 1.00 0.96 0.92 0.90 0.90 0.95 0.98 1.03 1.14 1.23 1.28 1.37 1.54 1.79 2.10 2.37 2.61
1.31 1.37 1.39 1.31 1.28 1.32 1.37 1.44 1.62 1.63 1.54 1.54 1.78 1.88 1.72 1.56 1.70 1.66 1.49 1.39 1.16 1.01 0.91 0.89 0.90 0.89 0.87 0.86 0.82 0.83 0.86 0.88 0.91 0.98 1.06 1.20 1.41 1.73
1.46 1.40 1.40 1.50 1.53 1.44 1.46 1.49 1.62 1.77 1.74 1.68 1.85 1.90 1.76 1.53 1.50 1.51 1.48 1.44 1.26 1.18 1.01 0.92 0.88 0.86 0.83 0.85 0.87 0.85 0.79 0.73 0.71 0.75 0.81 0.87 0.92 0.97
1.51 1.64 1.66 1.66 1.61 1.56 1.60 1.62 1.73 1.94 1.94 1.84 1.83 1.87 1.77 1.65 1.56 1.44 1.28 1.24 1.23 1.29 1.12 0.97 0.90 0.87 0.84 0.81 0.79 0.76 0.73 0.70 0.66 0.62 0.63 0.67 0.71 0.78
1.30 1.57 1.80 2.02 1.92 1.78 1.71 1.67 1.73 1.83 1.97 1.87 1.82 1.95 1.92 1.80 1.65 1.44 1.28 1.22 1.07 1.11 1.10 1.01 0.90 0.83 0.78 0.74 0.73 0.72 0.68 0.66 0.66 0.66 0.66 0.67 0.68 0.71
1.20 1.31 1.45 1.65 1.82 1.92 1.77 1.64 1.65 1.77 1.93 1.96 2.04 2.29 2.33 2.13 1.82 1.59 1.47 1.33 1.18 0.99 1.00 0.97 0.91 0.84 0.82 0.80 0.76 0.74 0.73 0.73 0.73 0.74 0.73 0.72 0.70 0.69
1.27 1.26 1.22 1.30 1.43 1.58 1.60 1.72 1.75 1.77 1.89 1.99 2.18 2.60 2.60 2.32 1.90 1.67 1.59 1.51 1.33 1.14 1.03 0.91 0.84 0.78 0.79 0.84 0.83 0.78 0.72 0.69 0.68 0.70 0.73 0.75 0.74 0.72
1.46 1.41 1.29 1.19 1.22 1.31 1.37 1.46 1.61 1.67 1.73 1.84 2.03 2.33 2.47 2.33 2.04 1.81 1.60 1.47 1.37 1.25 1.16 1.10 0.96 0.89 0.81 0.74 0.81 0.79 0.76 0.72 0.68 0.65 0.64 0.67 0.70 0.71
1.64 1.67 1.41 1.19 1.25 1.22 1.29 1.30 1.31 1.40 1.50 1.60 1.79 2.00 2.30 2.40 2.25 1.88 1.72 1.58 1.37 1.25 1.20 1.16 1.04 0.93 0.82 0.78 0.83 0.70 0.67 0.66 0.61 0.58 0.56 0.54 0.55 0.58
1.39 1.38 1.36 1.23 1.15 1.15 1.15 1.09 1.05 1.06 1.12 1.19 1.33 1.59 1.89 2.24 2.42 2.20 2.01 1.82 1.58 1.36 1.15 1.14 1.10 0.98 0.85 0.77 0.83 0.71 0.60 0.57 0.54 0.50 0.47 0.48 0.48 0.49
1.13 1.15 1.19 1.11 1.09 0.97 0.92 0.94 0.93 0.90 0.88 0.90 0.98 1.15 1.42 1.74 2.09 2.22 1.94 1.61 1.46 1.27 1.10 1.00 0.96 0.97 0.93 0.78 0.75 0.76 0.63 0.55 0.52 0.51 0.48 0.46 0.43 0.44
1.24 1.24 1.20 1.07 0.99 0.82 0.78 0.83 0.80 0.74 0.76 0.75 0.74 0.81 0.94 1.20 1.57 1.72 1.76 1.51 1.28 1.15 0.89 0.82 0.79 0.80 0.85 0.73 0.58 0.56 0.56 0.59 0.57 0.52 0.49 0.48 0.47 0.36
1.28 1.34 1.28 1.13 0.86 0.69 0.61 0.63 0.61 0.63 0.68 0.71 0.71 0.74 0.87 1.05 1.21 1.43 1.58 1.51 1.26 0.98 0.80 0.77 0.71 0.72 0.73 0.68 0.63 0.57 0.53 0.52 0.54 0.56 0.56 0.57 0.56 0.48
1.14 1.27 1.26 1.09 0.84 0.68 0.56 0.50 0.48 0.46 0.50 0.58 0.60 0.61 0.67 0.79 0.98 1.24 1.45 1.46 1.32 1.09 0.92 0.89 0.84 0.76 0.71 0.65 0.60 0.59 0.59 0.57 0.56 0.55 0.55 0.65 0.62 0.61
0.89 1.15 1.24 1.11 0.95 0.79 0.69 0.63 0.52 0.44 0.46 0.49 0.46 0.45 0.50 0.62 0.84 1.18 1.53 1.67 1.58 1.34 1.15 1.01 0.93 0.91 0.90 0.77 0.62 0.56 0.59 0.60 0.55 0.54 0.56 0.59 0.57 0.57
0.81 0.97 1.11 1.13 1.01 0.92 0.82 0.69 0.58 0.53 0.51 0.51 0.50 0.53 0.62 0.73 0.86 1.01 1.35 1.61 1.65 1.46 1.25 1.13 1.05 1.05 1.00 0.85 0.70 0.54 0.48 0.51 0.51 0.51 0.55 0.57 0.59 0.58
0.87 0.92 1.04 1.13 1.14 1.10 1.06 0.95 0.83 0.76 0.67 0.63 0.68 0.70 0.75 0.81 0.84 0.94 1.16 1.37 1.37 1.25 1.14 1.13 1.13 1.10 1.04 0.99 0.85 0.59 0.48 0.45 0.45 0.52 0.61 0.61 0.59 0.64
0.62 0.74 0.91 1.07 1.19 1.23 1.25 1.19 1.06 0.96 0.87 0.85 0.87 0.84 0.83 0.88 0.89 0.92 1.07 1.23 1.25 1.18 1.12 1.05 1.13 1.25 1.19 1.01 0.83 0.69 0.56 0.48 0.48 0.57 0.64 0.64 0.59 0.59
0.42 0.58 0.74 0.89 1.05 1.19 1.23 1.19 1.11 1.09 1.10 1.08 1.06 1.02 0.95 0.95 1.00 0.98 1.00 1.13 1.20 1.16 1.17 1.14 1.14 1.17 1.14 0.87 0.63 0.59 0.63 0.60 0.63 0.66 0.68 0.66 0.58 0.56
0.38 0.53 0.68 0.82 0.96 1.13 1.18 1.17 1.18 1.19 1.19 1.14 1.15 1.16 1.12 1.07 1.07 1.04 1.01 1.02 1.11 1.19 1.21 1.20 1.13 1.04 0.96 0.87 0.76 0.63 0.61 0.73 0.79 0.76 0.74 0.75 0.69 0.67
0.48 0.53 0.60 0.71 0.88 1.05 1.18 1.22 1.25 1.23 1.22 1.23 1.23 1.24 1.26 1.21 1.12 1.10 1.14 1.14 1.12 1.17 1.11 0.99 0.96 1.08 1.17 1.20 1.04 0.74 0.60 0.63 0.75 0.80 0.84 0.92 0.84 0.77
0.64 0.67 0.68 0.75 0.93 1.10 1.23 1.32 1.37 1.33 1.29 1.29 1.30 1.30 1.29 1.28 1.19 1.18 1.26 1.25 1.12 1.05 1.04 1.06 1.21 1.36 1.35 1.23 0.97 0.78 0.71 0.71 0.74 0.77 0.81 0.86 0.86 0.76
0.76 0.73 0.69 0.73 0.89 1.06 1.17 1.28 1.37 1.36 1.30 1.27 1.33 1.37 1.29 1.24 1.19 1.21 1.24 1.29 1.24 1.17 1.20 1.24 1.29 1.32 1.28 1.24 1.16 0.99 0.84 0.82 0.83 0.77 0.65 0.60 0.59 0.58